History for DABS

Tebessa, Algeria

Daily Weekly Monthly
Daily Summary for Wednesday, July 29, 2015
  Actual: Average: Record:
Temperature
Mean Temperature: 82 °F / 28 °C - :  
Max Temperature: 96 °F / 36 °C 92 °F / 33 °C - ()
Min Temperature: 70 °F / 21 °C 62 °F / 16 °C - ()
Cooling Degree Days 18    
Growing Degree Days 32 (Base 50)    
Moisture
Dew Point 63 °F / 17 °C    
Average Humidity 57    
Maximum Humidity 83    
Minimum Humidity 32    
Precipitation
Precipitation 0.00 in / 0.0 cm 0.03 in / 0.8 cm - ()
Sea Level Pressure
Sea Level Pressure 30.05 in / 1017.75 hPa   
Wind
Wind Speed 3 mph / 4 km/h ()  
Max Wind Speed 9 mph / 15 km/h   
Max Gust Speed -   
Visibility 9.1 miles / 15.0 kilometers   
Events     

Key: T is trace of precipitation, MM is missing value
Source: Averaged Metar Reports

Graphs

Observations

History Graphs Observations

Obs Go Here...

Features

Weather Apps

WunderRadio

Weather Underground Apps
Check out our wide variety of mobile and setup applications.

Weather Underground Applications

Top of Page

Copyright© 2015
Weather Underground, Inc.
Time(CET)TemperatureDew PointHumidity Sea Level Pressure Visibility Wind DirectionWind SpeedGust SpeedPrecipitationEvents Conditions
12:30 AM 78.8 °F / 26.0 °C 53.6 °F / 12.0 °C 42% 30.06 in / 1018 hPa - East 9.2 mph / 14.8 km/h - N/A   Clear
1:00 AM 78 °F / 26 °C 54 °F / 12 °C 33%  in /  hPa 9 miles / 15 kilometers East 9.2 mph / 14.8 km/h - -  
1:00 AM 78.8 °F / 26.0 °C 53.6 °F / 12.0 °C 42% 30.06 in / 1018 hPa - East 9.2 mph / 14.8 km/h - N/A   Clear
1:30 AM 77.0 °F / 25.0 °C 53.6 °F / 12.0 °C 44% 30.06 in / 1018 hPa - Calm Calm - N/A   Clear
2:00 AM 77.0 °F / 25.0 °C 53.6 °F / 12.0 °C 44% 30.06 in / 1018 hPa - ESE 4.6 mph / 7.4 km/h - N/A   Clear
2:30 AM 75.2 °F / 24.0 °C 53.6 °F / 12.0 °C 47% 30.06 in / 1018 hPa - Calm Calm - N/A   Clear
3:00 AM 77.0 °F / 25.0 °C 53.6 °F / 12.0 °C 44% 30.06 in / 1018 hPa - Calm Calm - N/A   Clear
3:30 AM 75.2 °F / 24.0 °C 53.6 °F / 12.0 °C 47% 30.06 in / 1018 hPa - Calm Calm - N/A   Clear
4:00 AM 76 °F / 24 °C 67 °F / 19 °C 66%  in /  hPa 9 miles / 15 kilometers Calm Calm - -  
4:00 AM 75.2 °F / 24.0 °C 66.2 °F / 19.0 °C 73% 30.04 in / 1017 hPa - Calm Calm - N/A   Clear
4:30 AM 75.2 °F / 24.0 °C 66.2 °F / 19.0 °C 73% 30.04 in / 1017 hPa - Calm Calm - N/A   Clear
5:00 AM 75.2 °F / 24.0 °C 66.2 °F / 19.0 °C 73% 30.04 in / 1017 hPa - Calm Calm - N/A   Clear
5:30 AM 73.4 °F / 23.0 °C 66.2 °F / 19.0 °C 78% 30.04 in / 1017 hPa - Calm Calm - N/A   Clear
6:00 AM 71.6 °F / 22.0 °C 64.4 °F / 18.0 °C 78% 30.04 in / 1017 hPa - Calm Calm - N/A   Clear
6:30 AM 73.4 °F / 23.0 °C 66.2 °F / 19.0 °C 78% 30.06 in / 1018 hPa - Calm Calm - N/A   Clear
7:00 AM 74 °F / 23 °C 69 °F / 20 °C 78%  in /  hPa 12 miles / 20 kilometers Calm Calm - -  
7:00 AM 73.4 °F / 23.0 °C 68.0 °F / 20.0 °C 83% 30.06 in / 1018 hPa - Calm Calm - N/A   Clear
7:30 AM 77.0 °F / 25.0 °C 71.6 °F / 22.0 °C 83% 30.06 in / 1018 hPa - Calm Calm - N/A   Clear
8:00 AM 78.8 °F / 26.0 °C 73.4 °F / 23.0 °C 83% 30.06 in / 1018 hPa - Calm Calm - N/A   Clear
8:30 AM 80.6 °F / 27.0 °C 73.4 °F / 23.0 °C 79% 30.06 in / 1018 hPa - Calm Calm - N/A   Clear
9:00 AM 84.2 °F / 29.0 °C 69.8 °F / 21.0 °C 62% 30.06 in / 1018 hPa - Calm Calm - N/A   Clear
9:30 AM 86.0 °F / 30.0 °C 68.0 °F / 20.0 °C 55% 30.06 in / 1018 hPa - Calm Calm - N/A   Clear
10:00 AM 91 °F / 33 °C 67 °F / 19 °C 35%  in /  hPa 12 miles / 20 kilometers Calm Calm - -  
10:00 AM 91.4 °F / 33.0 °C 66.2 °F / 19.0 °C 43% 30.06 in / 1018 hPa - Calm Calm - N/A   Clear
10:30 AM 93.2 °F / 34.0 °C 66.2 °F / 19.0 °C 41% 30.06 in / 1018 hPa - WNW 6.9 mph / 11.1 km/h - N/A   Clear
11:00 AM 95.0 °F / 35.0 °C 60.8 °F / 16.0 °C 32% 30.06 in / 1018 hPa - NNW 6.9 mph / 11.1 km/h - N/A   Clear
11:30 AM 95.0 °F / 35.0 °C 60.8 °F / 16.0 °C 32% 30.06 in / 1018 hPa 6.2 miles / 10.0 kilometers Calm Calm - N/A   Partly Cloudy
12:00 PM 96.8 °F / 36.0 °C 64.4 °F / 18.0 °C 34% 30.04 in / 1017 hPa 6.2 miles / 10.0 kilometers NW 6.9 mph / 11.1 km/h - N/A   Partly Cloudy